Weather observations for the past three days for
John F Kennedy Memorial Airport
| Date | Time (cdt) | Wind (mph) | Vis. (mi.) | Weather | Sky Cond. | Temperature (ºF) | Relative Humidity | Wind Chill (°F) | Heat Index (°F) | Pressure | Precipitation (in) | ||||||
|---|---|---|---|---|---|---|---|---|---|---|---|---|---|---|---|---|---|
| Air | Dwpt | 6 hour | altimeter (in) | sea level (mb) | 1 hr | 3 hr | 6 hr | ||||||||||
| Max. | Min. | ||||||||||||||||
| 06 | 10:53 | Vrbl 3 | 10.00 | Fair | CLR | 78.1 | 66 | 67% | 80 | 30.13 | 1020.0 | ||||||
| 06 | 09:53 | Vrbl 3 | 10.00 | Fair | CLR | 72 | 64.9 | 79% | 30.14 | 1020.6 | |||||||
| 06 | 08:53 | Calm | 10.00 | Partly Cloudy | SCT032 | 66.9 | 63 | 87% | 30.14 | 1020.7 | |||||||
| 06 | 07:53 | Calm | 10.00 | Fair | CLR | 61 | 61 | 100% | 30.14 | 1020.7 | |||||||
| 06 | 06:53 | Calm | 1.00 | Fog/Mist | CLR | 57 | 57 | 59 | 54 | 100% | 30.12 | 1020.1 | |||||
| 06 | 05:53 | SW 3 | 0.75 | Fog/Mist | CLR | 55.9 | 55.9 | 100% | 30.1 | 1019.3 | |||||||
| 06 | 04:53 | Calm | 0.25 | Fog | FEW002 BKN031 | 55 | 55 | 100% | 30.1 | 1019.4 | |||||||
| 06 | 03:53 | Calm | 0.50 | Fog | CLR | 55 | 55 | 100% | 30.11 | 1019.6 | |||||||
| 06 | 02:53 | S 3 | 2.50 | Fog/Mist | CLR | 57 | 57 | 100% | 30.11 | 1019.4 | |||||||
| 06 | 01:53 | Calm | 9.00 | Mostly Cloudy | BKN009 BKN041 | 59 | 59 | 100% | 30.11 | 1019.8 | |||||||
| 06 | 00:53 | W 5 | 10.00 | A Few Clouds | FEW043 | 59 | 59 | 66.9 | 57.9 | 100% | 30.11 | 1019.7 | |||||
| 05 | 23:53 | Calm | 10.00 | Fair | CLR | 60.1 | 60.1 | 100% | 30.1 | 1019.2 | |||||||
| 05 | 22:53 | Calm | 10.00 | Fair | CLR | 63 | 62.1 | 97% | 30.09 | 1018.9 | |||||||
| 05 | 21:53 | N 3 | 10.00 | Fair | CLR | 63 | 62.1 | 97% | 30.08 | 1018.6 | |||||||
| 05 | 20:53 | N 6 | 10.00 | Fair | CLR | 62.1 | 61 | 96% | 30.08 | 1018.5 | |||||||
| 05 | 18:53 | NE 6 | 10.00 | Partly Cloudy | SCT027 | 66.9 | 61 | 75 | 66.9 | 81% | 30.08 | 1018.6 | |||||
| 05 | 17:53 | NE 8 | 10.00 | Fair | CLR | 72 | 60.1 | 66% | 30.07 | 1018.3 | |||||||
| 05 | 16:53 | NE 9 | 10.00 | Fair | CLR | 73.9 | 62.1 | 67% | 30.08 | 1018.3 | |||||||
| 05 | 15:53 | NE 8 | 10.00 | Mostly Cloudy | BKN027 | 75 | 63 | 66% | 77 | 30.09 | 1018.6 | ||||||
| 05 | 12:53 | N 7 | 10.00 | Overcast | OVC016 | 70 | 64 | 71.1 | 64.9 | 82% | 30.1 | 1019.1 | |||||
| 05 | 11:53 | N 8 | 10.00 | Overcast | OVC018 | 69.1 | 64.9 | 87% | 30.11 | 1019.4 | |||||||
| 05 | 10:53 | Calm | 10.00 | Overcast | OVC015 | 70 | 64.9 | 84% | 30.1 | 1019.2 | |||||||
| 05 | 09:53 | NE 5 | 10.00 | Overcast | SCT008 OVC018 | 68 | 66 | 93% | 30.09 | 1018.8 | |||||||
| 05 | 08:53 | NE 5 | 10.00 | Overcast | FEW005 OVC018 | 66.9 | 66 | 97% | 30.08 | 1018.5 | |||||||
| 05 | 07:53 | Calm | 9.00 | Overcast | OVC003 | 66 | 66 | 100% | 30.08 | 1018.6 | |||||||
| 05 | 06:53 | N 3 | 6.00 | Fog/Mist | OVC002 | 64.9 | 64.9 | 66 | 64.9 | 100% | 30.05 | 1017.5 | 0.03 | ||||
| 05 | 05:53 | N 8 | 5.00 | Fog/Mist | OVC002 | 64.9 | 64.9 | 100% | 30.03 | 1016.9 | |||||||
| 05 | 04:53 | N 8 | 2.00 | Fog/Mist | OVC002 | 64.9 | 64.9 | 100% | 30.04 | 1017.1 | 0.01 | ||||||
| 05 | 02:53 | N 7 | 2.50 | Light Rain Fog/Mist | OVC002 | 64.9 | 64.9 | 100% | 30.04 | 1017.1 | |||||||
| 05 | 01:53 | N 7 | 2.50 | Light Rain Fog/Mist | OVC002 | 64.9 | 64.9 | 100% | 30.03 | 1016.7 | 0.01 | ||||||
| 05 | 00:53 | N 8 | 4.00 | Fog/Mist | OVC003 | 64.9 | 64 | 66 | 64 | 97% | 30.03 | 1016.9 | |||||
| 04 | 23:53 | N 5 | 3.00 | Fog/Mist | OVC003 | 64 | 64 | 100% | 30.03 | 1016.8 | |||||||
| 04 | 22:53 | N 3 | 2.50 | Fog/Mist | OVC003 | 64.9 | 64 | 97% | 30.03 | 1016.8 | |||||||
| 04 | 21:53 | N 6 | 4.00 | Fog/Mist | OVC004 | 64.9 | 64 | 97% | 30.03 | 1016.8 | |||||||
| 04 | 20:53 | N 6 | 7.00 | Overcast | OVC004 | 64.9 | 64 | 97% | 30.02 | 1016.7 | |||||||
| 04 | 19:53 | N 8 | 10.00 | Overcast | OVC005 | 64.9 | 64 | 97% | 30.01 | 1016.0 | |||||||
| 04 | 18:53 | NE 7 | 10.00 | Overcast | OVC005 | 66 | 64 | 72 | 66 | 93% | 30 | 1015.8 | |||||
| 04 | 17:53 | N 9 | 10.00 | Overcast | OVC009 | 66.9 | 64 | 91% | 29.99 | 1015.6 | |||||||
| 04 | 16:53 | NE 13 | 10.00 | Overcast | OVC014 | 68 | 63 | 84% | 29.99 | 1015.4 | |||||||
| 04 | 15:53 | NE 9 | 10.00 | Overcast | OVC009 | 68 | 64 | 87% | 29.98 | 1014.9 | |||||||
| 04 | 14:53 | N 8 | 10.00 | Overcast | OVC010 | 69.1 | 64.9 | 87% | 29.97 | 1014.8 | |||||||
| 04 | 13:53 | NE 7 | 10.00 | Overcast | OVC008 | 71.1 | 66.9 | 87% | 29.96 | 1014.3 | |||||||
| 04 | 12:53 | N 12 | 10.00 | Overcast | OVC008 | 69.1 | 64.9 | 71.1 | 64.9 | 87% | 29.95 | 1014.0 | |||||
| 04 | 11:53 | N 10 | 10.00 | Overcast | OVC005 | 69.1 | 66 | 90% | 29.95 | 1013.9 | |||||||
| 04 | 10:53 | N 9 | 10.00 | Overcast | OVC004 | 69.1 | 66.9 | 93% | 29.94 | 1013.6 | |||||||
| 04 | 09:53 | N 3 | 8.00 | Overcast | OVC004 | 69.1 | 66.9 | 93% | 29.93 | 1013.2 | |||||||
| 04 | 08:53 | N 6 | 5.00 | Fog/Mist | OVC002 | 66.9 | 66.9 | 100% | 29.92 | 1012.9 | |||||||
| 04 | 07:53 | N 7 | 7.00 | Overcast | OVC002 | 66 | 66 | 100% | 29.9 | 1012.2 | |||||||
| 04 | 06:53 | N 6 | 10.00 | Overcast | FEW002 OVC011 | 64.9 | 64 | 66 | 63 | 97% | 29.88 | 1011.5 | 0.36 | ||||
| 04 | 05:53 | W 3 | 10.00 | A Few Clouds | FEW019 | 63 | 63 | 100% | 29.86 | 1011.1 | |||||||
| 04 | 04:53 | Calm | 10.00 | Overcast | BKN005 OVC019 | 64 | 64 | 100% | 29.87 | 1011.3 | 0.35 | ||||||
| 04 | 03:53 | Vrbl 7 | 4.00 | Thunderstorm Light Rain Fog/Mist | OVC002 | 64.9 | 64 | 97% | 29.89 | 1012.0 | 0.01 | 0.01 | |||||
| 04 | 02:53 | Calm | 10.00 | Overcast | OVC003 | 64 | 64 | 100% | 29.87 | 1011.4 | |||||||
| 04 | 01:53 | NE 6 | 10.00 | Overcast | OVC004 | 64 | 63 | 96% | 29.89 | 1012.1 | |||||||
| 04 | 00:53 | NE 10 | 10.00 | Overcast | OVC002 | 64 | 63 | 68 | 64 | 96% | 29.91 | 1012.7 | 0.01 | ||||
| 03 | 23:53 | NE 15 G 24 | 10.00 | Thunderstorm in Vicinity | FEW009 OVC019 | 64 | 62.1 | 93% | 29.91 | 1012.6 | |||||||
| 03 | 22:53 | N 13 G 24 | 10.00 | Thunderstorm Light Rain | FEW010 SCT024 OVC070 | 66 | 63 | 90% | 29.9 | 1012.1 | 0.01 | ||||||
| 03 | 21:53 | Calm | 10.00 | Overcast | OVC080 | 66.9 | 63 | 87% | 29.89 | 1012.0 | |||||||
| 03 | 20:53 | N 7 | 10.00 | Fair | CLR | 68 | 64 | 87% | 29.88 | 1011.7 | |||||||
| 03 | 19:53 | N 8 | 10.00 | Overcast | SCT070 OVC100 | 68 | 62.1 | 81% | 29.89 | 1012.1 | |||||||
| 03 | 18:53 | NE 12 G 21 | 10.00 | Fair | CLR | 69.1 | 61 | 80.1 | 69.1 | 76% | 29.89 | 1012.1 | |||||
| 03 | 17:53 | NE 16 | 10.00 | Fair | CLR | 72 | 60.1 | 66% | 29.89 | 1012.2 | |||||||
| 03 | 16:53 | NE 14 | 10.00 | A Few Clouds | FEW075 | 73.9 | 61 | 64% | 29.89 | 1012.1 | |||||||
| 03 | 15:53 | NE 12 | 10.00 | Overcast | OVC050 | 73.9 | 61 | 64% | 29.9 | 1012.4 | |||||||
| 03 | 14:53 | N 12 | 10.00 | Mostly Cloudy | BKN050 | 75.9 | 63 | 64% | 78 | 29.9 | 1012.3 | ||||||
| 03 | 13:53 | N 13 | 10.00 | Fair | CLR | 79 | 62.1 | 56% | 80 | 29.9 | 1012.3 | ||||||
| 03 | 12:53 | N 10 G 21 | 10.00 | Mostly Cloudy | BKN055 | 79 | 63 | 80.1 | 53.1 | 58% | 81 | 29.92 | 1012.9 | ||||
| 03 | 11:53 | Calm | 10.00 | Partly Cloudy | SCT055 | 78.1 | 62.1 | 58% | 80 | 29.93 | 1013.4 | ||||||
| Date | Time (cdt) | Wind (mph) | Vis. (mi.) | Weather | Sky Cond. | Air | Dwpt | Max. | Min. | Relative Humidity | Wind Chill (°F) | Heat Index (°F) | altimeter (in) | sea level (mb) | 1 hr | 3 hr | 6 hr |
| 6 hour | |||||||||||||||||
| Temperature (ºF) | Pressure | Precipitation (in) | |||||||||||||||